Weather Roundup
Issued by NWS Corpus Christi, TX

Home | Current Version | Previous Version | Text Only | Print | Product List | Glossary On
Versions: 1 2 3 4 5 6 7 8 9 10 11 12 13 14 15 16 17 18 19 20 21 22 23 24 25 26 27 28 29 30 31 32 33 34 35 36 37 38 39 40 41 42 43 44 45 46 47 48 49 50
000
ASUS44 KCRP 210210
HRRCRP

SOUTH TEXAS REGIONAL WEATHER ROUNDUP
NATIONAL WEATHER SERVICE CORPUS CHRISTI TX
900 PM CDT FRI APR 20 2018


TXZ229>244-210300-
...CORPUS CHRISTI AREA OBSERVATIONS...

CITY           SKY/WX    TMP DP  RH WIND       PRES   REMARKS
CORPUS CHRISTI CLOUDY    70  65  84 SE20      30.01S
NAS CORPUS CHR PTCLDY    72  32  23 SE21      30.02S
ROCKPORT       CLOUDY    69  64  84 SE15      30.03R
KINGSVILLE ARP CLOUDY    72  68  87 E13G20    30.01R
KINGSVILLE NAS MOCLDY    71  65  81 SE16G22   30.00R
ALICE          CLOUDY    70  63  78 SE14      30.00R
$$

...VICTORIA AREA OBSERVATIONS...

CITY           SKY/WX    TMP DP  RH WIND       PRES   REMARKS
PORT LAVACA    CLOUDY    67  59  76 E10       30.07R
VICTORIA       CLOUDY    65  55  70 E12       30.06R
BEEVILLE       CLOUDY    67  61  81 E10G18    30.03R
PLEASANTON     CLOUDY    67  57  70 SE12      30.03R
SAN ANTONIO    CLOUDY    64  54  69 SE15      30.04R
$$

...LAREDO AREA OBSERVATIONS...

CITY           SKY/WX    TMP DP  RH WIND       PRES   REMARKS
LAREDO         MOCLDY    73  62  68 E14       29.94S
COTULLA        CLOUDY    72  62  71 SE21G26   29.97R
DEL RIO        CLOUDY    67  57  70 SE16G26   29.92R
MCALLEN        CLEAR     76  63  64 SE20      29.98R
HEBBRONVILLE   CLOUDY    71  61  69 SE16      29.99R
$$

...OTHER TEXAS OBSERVATIONS...

CITY           SKY/WX    TMP DP  RH WIND       PRES   REMARKS
BROWNSVILLE    FAIR      73  65  75 E10       30.01S
HOUSTON        MOCLDY    61  50  67 SE9       30.12S
COL. STATION   CLEAR     60  48  64 E6        30.10F
AUSTIN         CLOUDY    62  47  57 E9        30.06S
WACO           CLEAR     62  44  51 SE14      30.07S
FORT WORTH     PTCLDY    63  43  48 SE14      30.05R
WICHITA FALLS  CLOUDY    64  38  38 SE13      30.00R
LUBBOCK        CLOUDY    64  50  60 S26G35    29.89R
EL PASO        CLEAR     69   7   9 NW20      29.90R
$$

...MARINE OBSERVATIONS...

STATION/POSITION TIME  SKY/WX   TEMP    WIND        PRES    VSBY  WAVE   SWELL
                                AIR SEA DIR/SP/G                  HT/PER HT/PER
                 (UTC)          (F)     (DEG/KT/KT) (MB)    (MI)  (FT/S) (FT/S)
PORT ARANSAS     0200            71 71  110/ 20/ 22 1016.4F
BUOY 90 E PORT A 0150            71 73   80/ 21/ 23 1016.6F         4/ 7
BUOY 200 E PT IS 0150            74 75  110/ 12/ 14 1018.7R         3/ 6   3/ 6
BUOY 15 E GALVES 0050            65 70   90/ 14/ 17 1019.8          3/ 4
$$



USA.gov is the U.S. government's official web portal to all federal, state and local government web resources and services.